QPF
0.00 0.00 0.00 0.00 0.00 0.00 0.00 0.00 0.00 0.00 0.00 0.00 0.00 0.00 0.00 0.00 0.00 0.00 0.00 0.00 0.00 0.00 0.00 0.00 0.00 0.00 0.00 0.00 0.00 0.00 0.00 0.00 0.00 0.00 0.00 0.00 0.00 0.00 0.00 0.00 0.05 0.05 0.01
0.00 0.00 0.00 0.00 0.00 0.00 0.00 0.00 0.00 0.00 0.00 0.00 0.00 0.00 0.00 0.00 0.00 0.00 0.00 0.00 0.00 0.00 0.00 0.00 0.00 0.00 0.00 0.00 0.00 0.00 0.00 0.00 0.00 0.00 0.00 0.00 0.00 0.00 0.00 0.01 0.06 0.04 0.00
0.00 0.00 0.00 0.00 0.00 0.00 0.00 0.00 0.00 0.00 0.00 0.00 0.00 0.00 0.00 0.00 0.00 0.00 0.00 0.00 0.00 0.00 0.00 0.00 0.00 0.00 0.00 0.00 0.00 0.00 0.00 0.00 0.00 0.00 0.02 0.02 0.00 0.00 0.00 0.00 0.01 0.01 0.00
0.00 0.00 0.00 0.00 0.00 0.00 0.00 0.00 0.00 0.00 0.00 0.00 0.00 0.00 0.00 0.00 0.00 0.00 0.00 0.00 0.00 0.00 0.00 0.00 0.00 0.00 0.00 0.00 0.00 0.00 0.00 0.00 0.00 0.00 0.03 0.05 0.01 0.00 0.00 0.00 0.00 0.00 0.00
0.00 0.00 0.00 0.00 0.00 0.00 0.00 0.00 0.00 0.00 0.00 0.00 0.00 0.00 0.00 0.00 0.00 0.00 0.00 0.00 0.00 0.00 0.00 0.00 0.00 0.00 0.00 0.00 0.00 0.00 0.00 0.00 0.00 0.00 0.01 0.02 0.01 0.01 0.00 0.00 0.00 0.01 0.00
0.00 0.00 0.00 0.00 0.00 0.00 0.00 0.00 0.00 0.00 0.00 0.00 0.00 0.00 0.00 0.00 0.00 0.00 0.00 0.00 0.00 0.00 0.00 0.00 0.00 0.00 0.00 0.00 0.00 0.00 0.00 0.00 0.00 0.00 0.00 0.00 0.02 0.02 0.00 0.01 0.01 0.02 0.03
0.00 0.00 0.00 0.00 0.00 0.00 0.00 0.00 0.00 0.00 0.00 0.00 0.00 0.00 0.00 0.00 0.00 0.00 0.00 0.00 0.00 0.00 0.00 0.00 0.00 0.00 0.00 0.00 0.00 0.00 0.00 0.00 0.00 0.00 0.00 0.00 0.01 0.01 0.00 0.01 0.03 0.04 0.04
0.00 0.00 0.00 0.00 0.00 0.00 0.00 0.00 0.00 0.00 0.00 0.00 0.00 0.00 0.00 0.00 0.00 0.00 0.00 0.00 0.00 0.00 0.00 0.00 0.00 0.00 0.00 0.00 0.00 0.00 0.00 0.00 0.00 0.00 0.00 0.00 0.01 0.00 0.00 0.00 0.02 0.04 0.05
0.00 0.00 0.00 0.00 0.00 0.00 0.00 0.00 0.00 0.00 0.00 0.00 0.00 0.00 0.00 0.00 0.00 0.00 0.00 0.00 0.00 0.00 0.00 0.00 0.00 0.00 0.00 0.00 0.00 0.00 0.00 0.00 0.00 0.00 0.00 0.01 0.01 0.00 0.00 0.00 0.01 0.03 0.05
0.00 0.00 0.00 0.00 0.00 0.00 0.00 0.00 0.00 0.00 0.00 0.00 0.00 0.00 0.00 0.00 0.00 0.00 0.00 0.00 0.00 0.00 0.00 0.00 0.00 0.00 0.00 0.00 0.00 0.00 0.00 0.00 0.00 0.00 0.01 0.01 0.01 0.01 0.00 0.00 0.00 0.01 0.03
0.00 0.00 0.00 0.00 0.00 0.00 0.00 0.00 0.00 0.00 0.00 0.00 0.00 0.00 0.00 0.00 0.01 0.02 0.02 0.02 0.01 0.00 0.00 0.00 0.01 0.01 0.01 0.00 0.01 0.02 0.01 0.00 0.01 0.01 0.01 0.01 0.01 0.01 0.01 0.00 0.00 0.00 0.01
0.00 0.00 0.00 0.00 0.00 0.00 0.00 0.00 0.00 0.00 0.01 0.00 0.00 0.02 0.03 0.04 0.03 0.02 0.03 0.03 0.01 0.01 0.00 0.00 0.01 0.01 0.01 0.01 0.06 0.11 0.02 0.01 0.01 0.02 0.03 0.02 0.03 0.03 0.03 0.02 0.01 0.00 0.01
0.00 0.00 0.00 0.00 0.00 0.00 0.00 0.00 0.00 0.00 0.01 0.01 0.01 0.03 0.05 0.05 0.04 0.01 0.02 0.04 0.05 0.04 0.02 0.02 0.03 0.02 0.03 0.05 0.08 0.11 0.02 0.02 0.03 0.06 0.11 0.12 0.06 0.05 0.04 0.03 0.02 0.02 0.02
0.00 0.00 0.00 0.00 0.00 0.00 0.00 0.00 0.00 0.00 0.00 0.00 0.01 0.03 0.04 0.06 0.04 0.02 0.02 0.02 0.06 0.06 0.09 0.08 0.08 0.06 0.06 0.06 0.06 0.06 0.05 0.04 0.04 0.05 0.09 0.10 0.06 0.05 0.04 0.03 0.03 0.03 0.02
0.00 0.00 0.00 0.00 0.00 0.00 0.00 0.00 0.00 0.00 0.00 0.00 0.00 0.01 0.02 0.04 0.04 0.04 0.05 0.05 0.03 0.04 0.08 0.11 0.09 0.10 0.08 0.07 0.05 0.06 0.05 0.05 0.07 0.07 0.07 0.08 0.04 0.04 0.04 0.04 0.04 0.03 0.03
0.00 0.00 0.00 0.00 0.00 0.00 0.00 0.00 0.00 0.00 0.00 0.00 0.00 0.00 0.01 0.03 0.05 0.07 0.09 0.11 0.09 0.09 0.10 0.10 0.09 0.13 0.11 0.11 0.07 0.06 0.05 0.04 0.05 0.05 0.06 0.08 0.07 0.05 0.05 0.06 0.05 0.04 0.04
0.00 0.01 0.00 0.00 0.00 0.00 0.00 0.00 0.01 0.00 0.01 0.01 0.02 0.02 0.02 0.04 0.08 0.09 0.10 0.11 0.13 0.15 0.16 0.13 0.11 0.14 0.14 0.14 0.15 0.13 0.10 0.08 0.07 0.07 0.06 0.05 0.05 0.06 0.07 0.07 0.06 0.05 0.04
0.00 0.01 0.00 0.00 0.00 0.00 0.00 0.01 0.01 0.00 0.01 0.01 0.02 0.02 0.03 0.05 0.09 0.10 0.10 0.13 0.19 0.18 0.17 0.19 0.16 0.18 0.22 0.24 0.21 0.16 0.14 0.15 0.12 0.09 0.07 0.07 0.06 0.06 0.09 0.12 0.09 0.06 0.05
0.02 0.02 0.01 0.01 0.01 0.01 0.01 0.01 0.01 0.01 0.01 0.01 0.01 0.03 0.03 0.05 0.07 0.09 0.09 0.11 0.14 0.14 0.15 0.15 0.20 0.23 0.24 0.26 0.26 0.21 0.17 0.15 0.16 0.16 0.13 0.09 0.09 0.10 0.11 0.10 0.10 0.08 0.06
0.03 0.02 0.02 0.02 0.02 0.02 0.02 0.02 0.02 0.01 0.02 0.01 0.01 0.02 0.02 0.02 0.03 0.05 0.07 0.08 0.10 0.11 0.11 0.13 0.15 0.19 0.20 0.22 0.23 0.22 0.21 0.15 0.14 0.12 0.10 0.09 0.11 0.12 0.10 0.09 0.11 0.07 0.06
0.05 0.04 0.03 0.02 0.03 0.03 0.04 0.03 0.02 0.02 0.01 0.01 0.01 0.01 0.01 0.01 0.02 0.03 0.04 0.06 0.06 0.07 0.07 0.09 0.12 0.13 0.15 0.21 0.22 0.19 0.16 0.15 0.14 0.11 0.09 0.08 0.09 0.10 0.10 0.10 0.11 0.09 0.10
0.09 0.07 0.04 0.04 0.05 0.04 0.04 0.03 0.03 0.02 0.01 0.01 0.00 0.01 0.01 0.01 0.01 0.02 0.03 0.03 0.04 0.05 0.05 0.07 0.09 0.09 0.09 0.18 0.17 0.16 0.14 0.12 0.09 0.07 0.12 0.13 0.08 0.07 0.09 0.13 0.14 0.13 0.10
0.11 0.06 0.05 0.06 0.06 0.04 0.04 0.03 0.03 0.02 0.01 0.02 0.01 0.01 0.00 0.00 0.01 0.02 0.02 0.03 0.03 0.03 0.03 0.04 0.05 0.06 0.06 0.10 0.13 0.14 0.14 0.11 0.13 0.12 0.11 0.10 0.10 0.10 0.07 0.11 0.16 0.14 0.11
0.06 0.03 0.04 0.05 0.07 0.07 0.04 0.03 0.03 0.02 0.02 0.02 0.01 0.01 0.01 0.01 0.01 0.01 0.00 0.01 0.01 0.01 0.02 0.02 0.03 0.04 0.04 0.04 0.06 0.09 0.11 0.16 0.17 0.14 0.09 0.07 0.08 0.09 0.09 0.09 0.12 0.17 0.18
0.03 0.02 0.02 0.04 0.06 0.06 0.04 0.04 0.04 0.02 0.02 0.01 0.01 0.02 0.01 0.01 0.00 0.00 0.00 0.00 0.00 0.00 0.01 0.01 0.01 0.02 0.03 0.04 0.04 0.06 0.07 0.10 0.10 0.09 0.06 0.07 0.08 0.07 0.09 0.10 0.10 0.11 0.15
0.01 0.02 0.03 0.06 0.08 0.07 0.06 0.06 0.06 0.05 0.04 0.03 0.03 0.02 0.02 0.01 0.00 0.00 0.00 0.00 0.00 0.00 0.00 0.01 0.01 0.01 0.02 0.03 0.04 0.04 0.05 0.04 0.05 0.06 0.06 0.07 0.09 0.08 0.09 0.10 0.10 0.09 0.11
MSLP
1007.81 1007.89 1008.16 1008.65 1009.28 1009.96 1010.59 1011.09 1011.43 1011.62 1011.72 1011.78 1011.89 1012.08 1012.35 1012.67 1013.00 1013.29 1013.50 1013.63 1013.70 1013.73 1013.78 1013.87 1014.01 1014.20 1014.40 1014.58 1014.71 1014.80 1014.84 1014.86 1014.89 1014.94 1015.03 1015.17 1015.34 1015.51 1015.69 1015.85 1016.01 1016.16 1016.31
1007.60 1007.81 1008.23 1008.83 1009.53 1010.23 1010.82 1011.26 1011.51 1011.63 1011.67 1011.73 1011.86 1012.10 1012.44 1012.83 1013.21 1013.53 1013.75 1013.86 1013.90 1013.91 1013.93 1014.00 1014.13 1014.31 1014.51 1014.68 1014.81 1014.89 1014.92 1014.93 1014.95 1015.01 1015.12 1015.27 1015.45 1015.65 1015.84 1016.02 1016.19 1016.35 1016.51
1007.37 1007.73 1008.29 1009.01 1009.77 1010.49 1011.06 1011.43 1011.62 1011.67 1011.68 1011.72 1011.87 1012.15 1012.53 1012.95 1013.35 1013.67 1013.87 1013.96 1013.98 1013.97 1013.98 1014.05 1014.19 1014.38 1014.58 1014.75 1014.88 1014.94 1014.95 1014.95 1014.96 1015.02 1015.13 1015.29 1015.49 1015.71 1015.91 1016.11 1016.29 1016.46 1016.64
1007.13 1007.64 1008.33 1009.16 1009.99 1010.73 1011.28 1011.62 1011.76 1011.78 1011.76 1011.80 1011.96 1012.25 1012.64 1013.06 1013.44 1013.73 1013.90 1013.96 1013.95 1013.93 1013.96 1014.06 1014.23 1014.44 1014.66 1014.83 1014.94 1014.98 1014.97 1014.94 1014.94 1014.98 1015.09 1015.26 1015.47 1015.69 1015.90 1016.11 1016.30 1016.49 1016.69
1006.89 1007.52 1008.34 1009.26 1010.15 1010.92 1011.48 1011.80 1011.93 1011.93 1011.91 1011.96 1012.13 1012.42 1012.79 1013.18 1013.51 1013.75 1013.86 1013.88 1013.86 1013.85 1013.91 1014.05 1014.26 1014.52 1014.76 1014.94 1015.04 1015.05 1015.00 1014.94 1014.90 1014.92 1015.01 1015.17 1015.37 1015.60 1015.82 1016.03 1016.23 1016.43 1016.65
1006.66 1007.39 1008.30 1009.29 1010.24 1011.04 1011.61 1011.94 1012.08 1012.09 1012.09 1012.16 1012.33 1012.61 1012.95 1013.29 1013.56 1013.72 1013.78 1013.76 1013.73 1013.74 1013.84 1014.03 1014.31 1014.61 1014.87 1015.06 1015.14 1015.12 1015.03 1014.92 1014.84 1014.82 1014.89 1015.03 1015.22 1015.43 1015.65 1015.86 1016.08 1016.29 1016.54
1006.47 1007.25 1008.21 1009.25 1010.23 1011.05 1011.64 1011.99 1012.15 1012.20 1012.24 1012.33 1012.52 1012.79 1013.09 1013.37 1013.57 1013.66 1013.66 1013.61 1013.57 1013.61 1013.75 1014.01 1014.33 1014.68 1014.97 1015.16 1015.21 1015.15 1015.01 1014.85 1014.72 1014.66 1014.69 1014.81 1014.98 1015.19 1015.41 1015.62 1015.84 1016.08 1016.34
1006.32 1007.11 1008.08 1009.13 1010.11 1010.93 1011.52 1011.89 1012.09 1012.18 1012.26 1012.40 1012.61 1012.87 1013.14 1013.37 1013.51 1013.54 1013.49 1013.41 1013.37 1013.43 1013.62 1013.92 1014.29 1014.67 1014.97 1015.15 1015.18 1015.08 1014.89 1014.68 1014.50 1014.41 1014.41 1014.51 1014.67 1014.87 1015.09 1015.31 1015.54 1015.78 1016.06
1006.25 1007.00 1007.94 1008.94 1009.88 1010.67 1011.25 1011.62 1011.84 1011.97 1012.10 1012.28 1012.51 1012.78 1013.04 1013.23 1013.32 1013.31 1013.23 1013.14 1013.10 1013.18 1013.40 1013.73 1014.13 1014.51 1014.81 1014.97 1014.98 1014.84 1014.61 1014.36 1014.15 1014.03 1014.02 1014.11 1014.27 1014.47 1014.70 1014.93 1015.17 1015.43 1015.72
1006.25 1006.94 1007.80 1008.71 1009.57 1010.29 1010.82 1011.18 1011.40 1011.56 1011.72 1011.94 1012.20 1012.48 1012.74 1012.92 1012.99 1012.96 1012.87 1012.77 1012.74 1012.83 1013.06 1013.39 1013.79 1014.17 1014.45 1014.59 1014.57 1014.41 1014.16 1013.90 1013.68 1013.55 1013.54 1013.63 1013.81 1014.03 1014.27 1014.52 1014.77 1015.04 1015.34
1006.32 1006.92 1007.67 1008.47 1009.22 1009.84 1010.30 1010.60 1010.81 1010.97 1011.15 1011.39 1011.68 1011.98 1012.25 1012.43 1012.51 1012.49 1012.40 1012.31 1012.29 1012.38 1012.59 1012.92 1013.29 1013.64 1013.89 1014.01 1013.97 1013.80 1013.56 1013.31 1013.10 1013.00 1013.01 1013.12 1013.32 1013.56 1013.82 1014.09 1014.35 1014.63 1014.92
1006.43 1006.94 1007.58 1008.25 1008.87 1009.38 1009.74 1009.98 1010.14 1010.28 1010.46 1010.71 1011.01 1011.33 1011.62 1011.82 1011.93 1011.93 1011.86 1011.79 1011.77 1011.86 1012.05 1012.33 1012.66 1012.97 1013.19 1013.29 1013.25 1013.10 1012.88 1012.66 1012.50 1012.43 1012.48 1012.62 1012.84 1013.10 1013.38 1013.65 1013.93 1014.20 1014.48
1006.51 1006.95 1007.50 1008.06 1008.56 1008.96 1009.23 1009.39 1009.49 1009.60 1009.76 1010.00 1010.30 1010.63 1010.93 1011.17 1011.31 1011.35 1011.32 1011.27 1011.26 1011.33 1011.48 1011.72 1011.99 1012.24 1012.43 1012.51 1012.49 1012.37 1012.20 1012.04 1011.94 1011.92 1011.99 1012.16 1012.39 1012.66 1012.95 1013.22 1013.49 1013.75 1014.02
1006.50 1006.91 1007.40 1007.89 1008.31 1008.63 1008.82 1008.92 1008.98 1009.05 1009.17 1009.38 1009.66 1009.99 1010.30 1010.57 1010.74 1010.83 1010.84 1010.82 1010.82 1010.86 1010.98 1011.15 1011.36 1011.56 1011.71 1011.78 1011.78 1011.71 1011.61 1011.51 1011.47 1011.49 1011.60 1011.77 1012.00 1012.25 1012.52 1012.78 1013.03 1013.27 1013.52
1006.35 1006.78 1007.26 1007.73 1008.12 1008.40 1008.56 1008.63 1008.66 1008.69 1008.77 1008.94 1009.19 1009.50 1009.81 1010.09 1010.30 1010.43 1010.48 1010.50 1010.50 1010.52 1010.59 1010.70 1010.84 1010.98 1011.10 1011.17 1011.19 1011.18 1011.14 1011.11 1011.11 1011.17 1011.28 1011.44 1011.63 1011.85 1012.07 1012.29 1012.52 1012.74 1012.97
1006.01 1006.50 1007.03 1007.54 1007.96 1008.27 1008.45 1008.53 1008.55 1008.56 1008.61 1008.74 1008.94 1009.21 1009.50 1009.78 1010.01 1010.18 1010.28 1010.32 1010.33 1010.34 1010.36 1010.41 1010.49 1010.57 1010.65 1010.72 1010.76 1010.79 1010.80 1010.82 1010.86 1010.92 1011.01 1011.12 1011.25 1011.40 1011.56 1011.73 1011.92 1012.12 1012.34
1005.53 1006.11 1006.72 1007.30 1007.80 1008.18 1008.43 1008.56 1008.60 1008.62 1008.65 1008.73 1008.88 1009.09 1009.35 1009.62 1009.87 1010.07 1010.20 1010.27 1010.30 1010.29 1010.28 1010.28 1010.29 1010.31 1010.36 1010.41 1010.46 1010.51 1010.56 1010.61 1010.65 1010.69 1010.73 1010.78 1010.82 1010.89 1010.97 1011.08 1011.22 1011.41 1011.62
1004.97 1005.64 1006.34 1007.02 1007.62 1008.10 1008.44 1008.65 1008.75 1008.78 1008.80 1008.84 1008.94 1009.10 1009.32 1009.57 1009.82 1010.04 1010.21 1010.31 1010.35 1010.35 1010.31 1010.25 1010.20 1010.17 1010.17 1010.20 1010.24 1010.30 1010.36 1010.41 1010.43 1010.43 1010.41 1010.36 1010.31 1010.28 1010.28 1010.32 1010.43 1010.60 1010.82
1004.44 1005.18 1005.95 1006.71 1007.41 1007.99 1008.43 1008.72 1008.88 1008.95 1008.97 1008.98 1009.04 1009.15 1009.32 1009.54 1009.79 1010.04 1010.24 1010.38 1010.44 1010.43 1010.37 1010.28 1010.18 1010.09 1010.04 1010.03 1010.05 1010.10 1010.14 1010.17 1010.16 1010.11 1010.00 1009.87 1009.72 1009.59 1009.51 1009.50 1009.58 1009.74 1009.98
1004.08 1004.83 1005.63 1006.43 1007.18 1007.83 1008.35 1008.72 1008.94 1009.05 1009.07 1009.07 1009.08 1009.15 1009.29 1009.49 1009.74 1010.00 1010.24 1010.41 1010.50 1010.51 1010.43 1010.31 1010.16 1010.03 1009.92 1009.87 1009.85 1009.87 1009.89 1009.88 1009.83 1009.71 1009.53 1009.31 1009.08 1008.87 1008.72 1008.67 1008.72 1008.88 1009.13
1004.01 1004.71 1005.47 1006.25 1006.99 1007.66 1008.21 1008.62 1008.89 1009.02 1009.06 1009.05 1009.05 1009.09 1009.20 1009.39 1009.64 1009.91 1010.18 1010.38 1010.50 1010.52 1010.45 1010.31 1010.12 1009.94 1009.79 1009.69 1009.64 1009.62 1009.60 1009.56 1009.46 1009.29 1009.05 1008.76 1008.46 1008.19 1007.99 1007.90 1007.93 1008.08 1008.33
1004.28 1004.89 1005.54 1006.22 1006.89 1007.51 1008.04 1008.46 1008.74 1008.90 1008.95 1008.95 1008.93 1008.96 1009.06 1009.24 1009.49 1009.77 1010.06 1010.29 1010.43 1010.47 1010.40 1010.25 1010.04 1009.83 1009.64 1009.50 1009.41 1009.36 1009.31 1009.23 1009.10 1008.89 1008.60 1008.27 1007.93 1007.62 1007.38 1007.26 1007.28 1007.41 1007.66
1004.92 1005.38 1005.87 1006.39 1006.93 1007.45 1007.91 1008.30 1008.57 1008.73 1008.80 1008.80 1008.79 1008.82 1008.91 1009.08 1009.32 1009.61 1009.90 1010.14 1010.30 1010.35 1010.29 1010.13 1009.92 1009.69 1009.48 1009.32 1009.20 1009.12 1009.05 1008.95 1008.79 1008.56 1008.25 1007.90 1007.53 1007.21 1006.96 1006.82 1006.81 1006.93 1007.14
1005.86 1006.15 1006.45 1006.78 1007.14 1007.52 1007.88 1008.20 1008.44 1008.60 1008.68 1008.70 1008.70 1008.73 1008.81 1008.97 1009.19 1009.46 1009.74 1009.97 1010.12 1010.17 1010.11 1009.96 1009.75 1009.52 1009.31 1009.14 1009.02 1008.93 1008.84 1008.73 1008.56 1008.32 1008.01 1007.66 1007.29 1006.97 1006.72 1006.58 1006.55 1006.63 1006.80
1006.98 1007.10 1007.21 1007.35 1007.53 1007.75 1007.99 1008.23 1008.43 1008.58 1008.66 1008.70 1008.71 1008.74 1008.81 1008.93 1009.12 1009.35 1009.58 1009.77 1009.90 1009.93 1009.87 1009.73 1009.54 1009.33 1009.13 1008.97 1008.86 1008.77 1008.68 1008.56 1008.39 1008.15 1007.84 1007.50 1007.16 1006.85 1006.62 1006.48 1006.44 1006.50 1006.62
1008.15 1008.13 1008.08 1008.04 1008.05 1008.13 1008.26 1008.41 1008.57 1008.70 1008.78 1008.82 1008.84 1008.86 1008.90 1008.98 1009.10 1009.26 1009.42 1009.55 1009.63 1009.63 1009.56 1009.43 1009.26 1009.08 1008.91 1008.78 1008.68 1008.60 1008.51 1008.39 1008.21 1007.98 1007.68 1007.36 1007.05 1006.77 1006.57 1006.45 1006.43 1006.48 1006.57
Thickness
5853 5846 5839 5834 5829 5826 5822 5818 5815 5811 5808 5805 5802 5799 5796 5794 5791 5789 5786 5784 5781 5779 5777 5775 5773 5771 5769 5767 5765 5763 5761 5760 5759 5757 5756 5754 5752 5751 5750 5749 5748 5748 5746
5856 5846 5839 5834 5829 5825 5821 5818 5814 5811 5808 5804 5801 5799 5796 5793 5791 5788 5786 5783 5781 5779 5777 5774 5772 5770 5768 5766 5764 5762 5761 5760 5758 5757 5756 5754 5753 5751 5750 5749 5750 5748 5746
5854 5845 5838 5833 5829 5825 5821 5817 5813 5810 5807 5804 5801 5798 5795 5793 5790 5788 5785 5783 5781 5778 5776 5774 5772 5770 5768 5766 5764 5762 5761 5759 5758 5757 5756 5756 5754 5752 5750 5748 5748 5746 5745
5853 5844 5839 5832 5828 5824 5820 5816 5813 5809 5806 5803 5800 5797 5795 5792 5790 5787 5785 5782 5780 5778 5776 5774 5772 5769 5767 5765 5763 5762 5760 5759 5759 5758 5758 5757 5756 5753 5750 5748 5747 5746 5744
5853 5845 5837 5831 5827 5822 5819 5815 5812 5808 5805 5802 5799 5796 5794 5791 5789 5786 5784 5781 5779 5777 5775 5773 5771 5769 5767 5765 5763 5761 5760 5760 5759 5759 5761 5761 5758 5755 5752 5749 5747 5745 5744
5853 5845 5835 5830 5825 5821 5817 5813 5810 5807 5804 5801 5798 5795 5792 5790 5787 5785 5782 5780 5778 5776 5774 5772 5771 5769 5767 5765 5763 5762 5760 5760 5759 5761 5763 5763 5760 5756 5753 5750 5748 5746 5744
5854 5843 5834 5828 5823 5819 5815 5811 5808 5805 5802 5799 5796 5794 5791 5788 5786 5784 5781 5779 5777 5775 5774 5772 5770 5769 5767 5765 5764 5762 5761 5760 5759 5762 5764 5765 5762 5759 5755 5752 5749 5747 5745
5855 5843 5832 5826 5822 5817 5814 5810 5807 5803 5800 5797 5795 5792 5789 5787 5784 5782 5780 5778 5777 5775 5773 5772 5770 5768 5767 5765 5764 5762 5761 5760 5762 5764 5766 5766 5764 5761 5758 5755 5751 5749 5747
5856 5842 5832 5826 5820 5816 5812 5809 5805 5802 5799 5796 5793 5790 5788 5785 5783 5781 5779 5778 5776 5774 5772 5771 5769 5768 5766 5765 5763 5762 5761 5760 5760 5763 5766 5768 5765 5763 5760 5757 5754 5751 5749
5853 5843 5834 5828 5821 5816 5812 5808 5804 5801 5797 5794 5792 5789 5786 5784 5782 5781 5779 5777 5776 5774 5772 5770 5769 5767 5766 5765 5763 5762 5761 5760 5760 5763 5765 5767 5765 5764 5761 5759 5756 5753 5751
5849 5843 5838 5830 5823 5819 5815 5810 5804 5800 5797 5793 5791 5788 5785 5784 5783 5782 5781 5779 5776 5773 5772 5770 5768 5767 5765 5764 5763 5763 5761 5760 5763 5765 5768 5769 5766 5764 5762 5759 5757 5755 5753
5842 5841 5840 5833 5826 5822 5820 5812 5806 5801 5798 5793 5792 5789 5785 5783 5783 5784 5783 5779 5776 5773 5771 5769 5768 5766 5764 5764 5765 5764 5762 5762 5763 5767 5769 5769 5766 5764 5761 5759 5757 5756 5754
5841 5839 5838 5833 5828 5825 5820 5813 5809 5806 5802 5795 5792 5789 5786 5783 5782 5782 5781 5779 5775 5772 5769 5768 5766 5764 5764 5764 5766 5766 5764 5765 5766 5767 5769 5768 5765 5763 5761 5759 5757 5755 5754
5838 5836 5836 5832 5825 5821 5818 5814 5810 5806 5802 5799 5794 5790 5787 5783 5780 5779 5778 5777 5774 5771 5769 5768 5766 5765 5764 5764 5765 5765 5765 5765 5766 5767 5766 5765 5763 5762 5760 5758 5757 5755 5754
5835 5834 5833 5829 5821 5816 5811 5807 5806 5803 5801 5797 5793 5789 5785 5781 5777 5776 5774 5772 5770 5768 5767 5766 5763 5762 5762 5762 5762 5762 5763 5763 5764 5764 5763 5762 5761 5759 5759 5758 5756 5755 5754
5834 5831 5829 5824 5818 5811 5805 5800 5798 5797 5795 5792 5789 5785 5781 5778 5774 5771 5768 5765 5764 5762 5762 5761 5760 5758 5757 5757 5757 5757 5757 5757 5759 5759 5759 5758 5758 5758 5757 5756 5755 5754 5753
5833 5830 5824 5819 5814 5806 5801 5796 5794 5792 5791 5788 5785 5781 5777 5774 5769 5766 5762 5760 5759 5757 5756 5755 5754 5753 5751 5751 5751 5751 5751 5751 5752 5753 5754 5755 5755 5755 5755 5754 5753 5753 5752
5831 5825 5820 5817 5809 5803 5796 5792 5790 5788 5786 5783 5780 5777 5773 5769 5765 5761 5758 5755 5754 5752 5751 5749 5748 5746 5744 5743 5742 5743 5744 5746 5746 5747 5748 5751 5751 5752 5752 5751 5750 5750 5750
5825 5819 5813 5809 5803 5797 5792 5787 5784 5782 5780 5777 5775 5772 5768 5764 5760 5757 5754 5752 5750 5748 5747 5745 5745 5742 5738 5737 5737 5738 5740 5740 5742 5742 5744 5746 5747 5748 5748 5748 5748 5748 5748
5817 5812 5806 5801 5796 5791 5786 5781 5778 5776 5774 5773 5770 5766 5762 5758 5755 5752 5749 5747 5746 5743 5742 5740 5738 5737 5735 5734 5734 5735 5736 5737 5737 5738 5740 5742 5743 5745 5746 5746 5746 5746 5746
5805 5801 5797 5791 5786 5783 5779 5773 5768 5766 5766 5766 5764 5761 5757 5753 5750 5747 5744 5742 5741 5739 5737 5736 5734 5732 5731 5731 5727 5726 5731 5734 5735 5737 5737 5737 5739 5741 5742 5743 5743 5744 5744
5793 5790 5786 5781 5777 5774 5772 5768 5764 5762 5761 5761 5759 5755 5752 5748 5745 5743 5739 5736 5735 5733 5732 5731 5729 5726 5726 5726 5720 5716 5717 5723 5730 5735 5734 5733 5735 5737 5737 5739 5739 5738 5740
5784 5780 5777 5772 5769 5766 5764 5761 5759 5755 5752 5751 5749 5747 5746 5743 5740 5737 5734 5732 5730 5728 5727 5725 5724 5722 5719 5720 5719 5713 5708 5711 5718 5726 5728 5728 5730 5730 5732 5734 5735 5737 5737
5775 5773 5770 5765 5761 5758 5755 5752 5749 5744 5741 5742 5742 5742 5740 5739 5736 5733 5731 5728 5726 5724 5722 5721 5722 5717 5715 5713 5714 5714 5712 5711 5706 5710 5718 5723 5725 5726 5727 5729 5731 5733 5732
5764 5762 5760 5756 5753 5749 5746 5744 5740 5737 5736 5737 5736 5734 5733 5732 5731 5729 5727 5724 5722 5719 5718 5717 5715 5713 5711 5709 5708 5707 5706 5706 5705 5700 5704 5712 5716 5720 5722 5723 5724 5726 5728
5751 5749 5747 5745 5740 5738 5735 5733 5729 5726 5726 5725 5724 5723 5724 5725 5725 5725 5723 5720 5717 5715 5714 5712 5710 5709 5707 5706 5704 5702 5700 5698 5698 5697 5698 5701 5704 5711 5716 5718 5719 5720 5722